sat.trackr.live / text

‹ back to catalog

STARLINK-3301

NORAD 50169 · 2021-125P

PAYLOAD ACTIVE UNKNOWN

§ Identity

Operator
Country
US
Launch date
2021-12-18
Launch site
AFWTR
Launch vehicle
Mass (kg)
RCS (m²)

Purposes: comms

External: N2YO · Heavens-Above · Gunter

§ Orbital elements

Epoch: 2026-09-11T21:52:27.452640Z

Period
93.85 min
Inclination
53.1604°
Eccentricity
0.0000957
Mean motion
15.34395548 rev/d
Perigee alt
462.1 km
Apogee alt
463.4 km
Semi-major
6,840.9 km
B*
5.8524e-5
RAAN
118.1156°
Arg perigee
100.2596°
Mean anomaly
259.8515°
Rev number
26,492

§ Raw data

STARLINK-33011 50169U 21125P   26254.91142885  .00001601  00000+0  58524-4 0  99942 50169  53.1604 118.1156 0000957 100.2596 259.8515 15.34395548264924

JSON: /api/v1/satellites/50169 · /tle

For live sub-satellite position, see the globe view (requires WebGL).

§ Visibility from observer

Set your observer location to see the next 7 days of passes ≥ 10°. The values pass through the URL so the page stays shareable.

No JS? Fill the form by hand. The geolocation button needs JavaScript.